Saint Martin Island, Sint Maarten

4:30 AM AST on February 26, 2017 (GMT -0400)
Princess Juliana International

Weather History for TNCM - November, 2014

Change the Weather History Date:

Sunday, November 2, 2014

  Actual Average Record
Temperature  
Mean Temperature 84 °F -  
Max Temperature 87 °F 84 °F 88 °F (2012)
Min Temperature 81 °F 74 °F 35 °F (1996)
Cooling Degree Days 19    
Growing Degree Days 34 (Base 50)    
Moisture  
Dew Point 76 °F    
Average Humidity 76    
Maximum Humidity 84    
Minimum Humidity 65    
Precipitation  
Precipitation 0.02 in 0.17 in - ()
Sea Level Pressure  
Sea Level Pressure 29.98 in    
Wind  
Wind Speed 8 mph ()    
Max Wind Speed 12 mph    
Max Gust Speed 21 mph    
Visibility 7.6 miles    
Events Rain    
Averages and records for this station are not official NWS values.
T = Trace of Precipitation, MM = Missing Value Source: Averaged Metar Reports

Daily Weather History Graph

Daily Weather History Graph

Search for Another Location

Airport or City:

Trip Planner

Search our weather history database for the weather conditions in past years. The results will help you decide how hot, cold, wet, or windy it might be!

Date:

Astronomy

Nov. 02, 2014 Rise Set
Actual Time 6:12 AM AST 5:39 PM AST
Civil Twilight 5:49 AM AST 6:02 PM AST
Nautical Twilight 5:23 AM AST 6:28 PM AST
Astronomical Twilight 4:58 AM AST 6:53 PM AST
Moon 2:31 PM AST (11/2) 1:52 AM AST (11/2)
Length of Visible Light 12h 12m
Length of Day
11h 27m
Waxing Gibbous, 78% of the Moon is Illuminated
Nov 2
Waxing Gibbous
Nov 6
Full
Nov 14
Last Quarter
Nov 22
New
Nov 29
First Quarter

Hourly Weather History & Observations

Time (AST) Temp. Heat Index Dew Point Humidity Pressure Visibility Wind Dir Wind Speed Gust Speed Precip Events Conditions
12:00 AM 82.4 °F 90.9 °F 77.0 °F 84% 29.98 in 6.2 mi East 8.1 mph 20.7 mph N/A   Scattered Clouds
1:00 AM 82.4 °F 89.5 °F 75.2 °F 79% 29.98 in 6.2 mi East 11.5 mph - N/A   Scattered Clouds
2:00 AM 82 °F - 76 °F 76% 29.96 in 22 mi East 9.2 mph - -   Partly Cloudy
2:00 AM 82.4 °F 89.5 °F 75.2 °F 79% 29.95 in 6.2 mi East 9.2 mph - N/A   Partly Cloudy
3:00 AM 82.4 °F 90.9 °F 77.0 °F 84% 29.95 in 6.2 mi East 9.2 mph - N/A   Partly Cloudy
4:00 AM 82.4 °F 89.5 °F 75.2 °F 79% 29.95 in 6.2 mi East 8.1 mph - N/A   Partly Cloudy
5:00 AM 82 °F - 76 °F 78% 29.96 in 22 mi East 8.1 mph - -   Scattered Clouds
5:00 AM 82.4 °F 90.9 °F 77.0 °F 84% 29.95 in 6.2 mi East 8.1 mph - N/A   Partly Cloudy
6:00 AM 82.4 °F 90.9 °F 77.0 °F 84% 29.98 in 6.2 mi East 6.9 mph - N/A   Scattered Clouds
7:00 AM 82.4 °F 90.9 °F 77.0 °F 84% 29.98 in 6.2 mi East 8.1 mph - N/A   Scattered Clouds
8:00 AM 84 °F - 76 °F 71% 30.02 in 40 mi East 9.2 mph - -   Partly Cloudy
8:00 AM 84.2 °F 94.1 °F 77.0 °F 79% 30.01 in 6.2 mi East 9.2 mph - N/A   Scattered Clouds
9:00 AM 86.0 °F 96.9 °F 77.0 °F 74% 30.04 in 6.2 mi East 8.1 mph - N/A Rain Light Rain Showers
10:00 AM 84.2 °F 94.1 °F 77.0 °F 79% 30.04 in 6.2 mi ESE 9.2 mph - N/A   Mostly Cloudy
11:00 AM 86.0 °F 95.1 °F 75.2 °F 70% 30.01 in 6.2 mi East 11.5 mph - N/A   Mostly Cloudy
12:00 PM 86.0 °F 95.1 °F 75.2 °F 70% 30.01 in 6.2 mi ESE 10.4 mph - N/A   Scattered Clouds
1:00 PM 86.0 °F 96.9 °F 77.0 °F 74% 29.98 in 6.2 mi SE 10.4 mph - N/A   Scattered Clouds
2:00 PM 86 °F - 76 °F 65% 29.97 in 19 mi ESE 9.2 mph - -   Partly Cloudy
2:00 PM 86.0 °F 96.9 °F 77.0 °F 74% 29.96 in 6.2 mi ESE 9.2 mph - N/A   Mostly Cloudy
3:00 PM 86.0 °F 95.1 °F 75.2 °F 70% 29.95 in 6.2 mi ESE 8.1 mph - N/A   Mostly Cloudy
4:00 PM 86.0 °F 95.1 °F 75.2 °F 70% 29.95 in 6.2 mi ESE 8.1 mph - N/A   Scattered Clouds
5:00 PM 83 °F - 77 °F 76% 29.97 in 6 mi ESE 8.1 mph - - Rain Light Rain Showers
5:00 PM 84.2 °F 94.1 °F 77.0 °F 79% 29.95 in 6.2 mi ESE 8.1 mph - N/A   Mostly Cloudy
6:00 PM 82.4 °F 90.9 °F 77.0 °F 84% 29.95 in 6.2 mi East 8.1 mph - N/A Rain Light Rain Showers
7:00 PM 82.4 °F 89.5 °F 75.2 °F 79% 29.98 in 6.2 mi East 6.9 mph - N/A   Scattered Clouds
8:00 PM 83 °F - 73 °F 66% 30.00 in 19 mi East 8.1 mph - -   Partly Cloudy
8:00 PM 82.4 °F 88.2 °F 73.4 °F 74% 29.98 in 6.2 mi East 8.1 mph - N/A   Partly Cloudy
9:00 PM 82.4 °F 88.2 °F 73.4 °F 74% 30.01 in 6.2 mi East 9.2 mph - N/A   Partly Cloudy
10:00 PM 82.4 °F 87.2 °F 71.6 °F 70% 30.01 in 6.2 mi East 10.4 mph - N/A   Partly Cloudy
11:00 PM 82 °F - 72 °F 66% 30.01 in 19 mi East 8.1 mph - -   Scattered Clouds
11:00 PM 82.4 °F 88.2 °F 73.4 °F 74% 30.01 in 6.2 mi East 8.1 mph - N/A   Partly Cloudy